Location: Goll?ig?dem
(16.6773°N, 80.7332°E)
Time: 16:19:31
(UTC+00:00)

Envisat - Pass Details

Date: 03 October 2021
Orbit: 764 x 766 km, 98.2° (Epoch: 18 October)

Event Time Altitude Azimuth Distance (km) Brightness Sun altitude
Rises 22:30:37 0° 38° (NE) 3,221 6.8 -28.8°
Reaches altitude 10° 22:33:44 10° 59° (ENE) 2,294 6.2 -28.1°
Maximum altitude 22:36:56 17° 98° (E) 1,862 5.8 -27.3°
Drops below altitude 10° 22:40:07 10° 138° (SE) 2,292 5.9 -26.6°
Sets 22:43:12 0° 158° (SSE) 3,216 6.5 -25.8°
